Weather History for Vancouver, WA

Change the Weather History Date:

Monday, November 4, 2013

  Actual Average Record
Temperature  
Mean Temperature 48 °F 49 °F  
Max Temperature 50 °F 57 °F 70 °F (1975)
Min Temperature 45 °F 42 °F 23 °F (1935)
Degree Days  
Heating Degree Days 17    
Month to date heating degree days 63  
Since 1 July heating degree days 557  
Cooling Degree Days 0    
Month to date cooling degree days 0  
Year to date cooling degree days 450  
Moisture  
Dew Point 45 °F    
Average Humidity 90    
Maximum Humidity 100    
Minimum Humidity 80    
Precipitation  
Precipitation 0.15 in 0.17 in 1.22 in (1934)
Month to date precipitation 0.81 0.65  
Year to date precipitation 23.00 27.11  
Snow  
Snow 0.00 in - - ()
Snow Depth 0.00 in    
Sea Level Pressure  
Sea Level Pressure 30.16 in    
Wind  
Wind Speed 2 mph (ESE)    
Max Wind Speed 6 mph    
Max Gust Speed 8 mph    
Visibility 6 miles    
Events Rain    
T = Trace of Precipitation, MM = Missing Value Source: NWS Daily Summary

Daily Weather History Graph

Daily Weather History Graph

Search for Another Location

Airport:

Trip Planner

Search our weather history database for the weather conditions in past years. The results will help you decide how hot, cold, wet, or windy it might be!

Date:

Astronomy

Nov. 04, 2013 Rise Set
Actual Time 6:55 AM PST 4:52 PM PST
Civil Twilight 6:23 AM PST 5:23 PM PST
Nautical Twilight 5:48 AM PST 5:59 PM PST
Astronomical Twilight 5:13 AM PST 6:33 PM PST
Moon 8:14 AM PST (11/4) 5:58 PM PST (11/4)
Length of Visible Light 11h 00m
Length of Day
9h 57m
New Moon, 2% of the Moon is Illuminated
Nov 4
New Moon
Nov 9
First Quarter
Nov 17
Full
Nov 25
Last Quarter
Dec 2
New

Hourly Weather History & Observations

Time (PST) Temp. Windchill Dew Point Humidity Pressure Visibility Wind Dir Wind Speed Gust Speed Precip Events Conditions
12:53 AM 46.0 °F - 43.0 °F 89% 30.15 in 10.0 mi Calm Calm - N/A   Mostly Cloudy
1:53 AM 46.0 °F 44.8 °F 43.0 °F 89% 30.14 in 10.0 mi SSE 3.5 mph - 0.00 in   Overcast
2:53 AM 46.0 °F - 43.0 °F 89% 30.14 in 10.0 mi Calm Calm - N/A   Overcast
3:14 AM 45.0 °F - 44.1 °F 97% 30.13 in 10.0 mi Calm Calm - 0.01 in Rain Light Rain
3:53 AM 46.0 °F - 44.1 °F 93% 30.14 in 7.0 mi Calm Calm - 0.02 in Rain Light Rain
4:53 AM 46.0 °F - 44.1 °F 93% 30.15 in 7.0 mi Calm Calm - 0.01 in Rain Light Rain
5:05 AM 46.0 °F 44.8 °F 43.0 °F 89% 30.15 in 8.0 mi SSW 3.5 mph - 0.00 in Rain Light Rain
5:12 AM 46.0 °F 44.8 °F 43.0 °F 89% 30.15 in 10.0 mi SSW 3.5 mph - 0.01 in Rain Light Rain
5:53 AM 46.0 °F - 44.1 °F 93% 30.16 in 7.0 mi Calm Calm - 0.01 in   Overcast
6:26 AM 46.0 °F - 43.0 °F 89% 30.15 in 4.0 mi Calm Calm - 0.01 in Rain Light Rain
6:42 AM 45.0 °F - 43.0 °F 93% 30.16 in 7.0 mi Calm Calm - 0.02 in Rain Light Rain
6:53 AM 45.0 °F - 44.1 °F 97% 30.16 in 6.0 mi Calm Calm - 0.02 in Rain Light Rain
7:00 AM 46.0 °F - 44.1 °F 93% 30.16 in 4.0 mi Calm Calm - 0.00 in Rain Light Rain
7:09 AM 46.0 °F - 44.1 °F 93% 30.16 in 3.0 mi Calm Calm - 0.01 in Rain Light Rain
7:40 AM 46.0 °F - 44.1 °F 93% 30.16 in 1.8 mi Calm Calm - 0.02 in Rain Light Rain
7:50 AM 44.6 °F - 44.6 °F 100% 30.16 in 2.5 mi Calm Calm - 0.02 in Rain Light Rain
7:53 AM 46.0 °F - 44.1 °F 93% 30.17 in 3.0 mi Calm Calm - 0.02 in Rain Light Rain
8:08 AM 46.0 °F 44.8 °F 44.1 °F 93% 30.16 in 7.0 mi SSE 3.5 mph - 0.00 in   Overcast
8:43 AM 46.0 °F - 44.1 °F 93% 30.17 in 4.0 mi Calm Calm - 0.00 in   Overcast
8:53 AM 46.0 °F - 44.1 °F 93% 30.17 in 2.5 mi Calm Calm - 0.01 in   Overcast
9:04 AM 46.0 °F 44.8 °F 44.1 °F 93% 30.17 in 1.8 mi SE 3.5 mph - N/A   Overcast
9:13 AM 46.0 °F 43.9 °F 44.1 °F 93% 30.17 in 3.0 mi ESE 4.6 mph - N/A   Overcast
9:24 AM 46.0 °F 43.9 °F 44.1 °F 93% 30.17 in 6.0 mi ESE 4.6 mph - N/A   Overcast
9:38 AM 46.0 °F 44.8 °F 44.1 °F 93% 30.17 in 6.0 mi East 3.5 mph - N/A   Overcast
9:53 AM 46.0 °F 44.8 °F 44.1 °F 93% 30.18 in 9.0 mi East 3.5 mph - N/A   Overcast
10:21 AM 46.9 °F - 44.1 °F 90% 30.18 in 10.0 mi ESE 4.6 mph - 0.00 in Rain Light Rain
10:28 AM 46.9 °F - 44.1 °F 90% 30.18 in 10.0 mi East 3.5 mph - 0.00 in   Overcast
10:46 AM 46.9 °F - 44.1 °F 90% 30.18 in 10.0 mi East 3.5 mph - 0.00 in   Overcast
10:53 AM 46.9 °F - 44.1 °F 90% 30.19 in 10.0 mi NE 4.6 mph - 0.00 in   Overcast
11:02 AM 46.9 °F - 44.1 °F 90% 30.18 in 10.0 mi East 3.5 mph - N/A   Overcast
11:40 AM 46.9 °F - 44.1 °F 90% 30.18 in 5.0 mi ENE 3.5 mph - N/A   Overcast
11:53 AM 46.9 °F - 45.0 °F 93% 30.18 in 2.0 mi NE 3.5 mph - 0.01 in Rain Light Rain
12:36 PM 46.9 °F - 45.0 °F 93% 30.17 in 1.2 mi NNE 3.5 mph - 0.03 in Rain Light Rain
12:53 PM 46.9 °F - 46.0 °F 97% 30.17 in 2.0 mi Calm Calm - 0.04 in Rain Light Rain
1:05 PM 46.9 °F - 45.0 °F 93% 30.17 in 5.0 mi North 3.5 mph - 0.00 in   Overcast
1:45 PM 48.0 °F - 46.0 °F 93% 30.17 in 8.0 mi Calm Calm - 0.00 in   Overcast
1:53 PM 48.0 °F - 46.0 °F 93% 30.17 in 10.0 mi Calm Calm - 0.00 in   Overcast
2:53 PM 48.9 °F - 46.0 °F 90% 30.15 in 7.0 mi Calm Calm - 0.00 in Rain Light Rain
3:31 PM 48.9 °F - 46.9 °F 93% 30.16 in 10.0 mi Calm Calm - 0.00 in   Overcast
3:53 PM 48.9 °F - 46.0 °F 90% 30.16 in 10.0 mi Variable 3.5 mph - 0.00 in   Overcast
4:53 PM 50.0 °F - 45.0 °F 83% 30.15 in 10.0 mi SSE 4.6 mph - 0.00 in   Overcast
5:53 PM 50.0 °F - 45.0 °F 83% 30.16 in 10.0 mi SSE 3.5 mph - 0.01 in Rain Light Rain
6:53 PM 48.9 °F - 45.0 °F 86% 30.17 in 10.0 mi SE 3.5 mph - 0.00 in Rain Light Rain
7:26 PM 48.9 °F - 46.0 °F 90% 30.14 in 8.0 mi SE 5.8 mph - 0.03 in Rain Light Rain
7:53 PM 48.9 °F - 46.0 °F 90% 30.14 in 5.0 mi SE 5.8 mph - 0.05 in Rain Light Rain
8:53 PM 48.0 °F - 46.0 °F 93% 30.14 in 5.0 mi ESE 9.2 mph - 0.07 in Rain Light Rain
9:22 PM 46.9 °F - 46.0 °F 97% 30.14 in 5.0 mi ESE 8.1 mph - 0.02 in Rain Light Rain
9:53 PM 46.9 °F - 45.0 °F 93% 30.13 in 5.0 mi ESE 9.2 mph - 0.03 in Rain Light Rain
10:20 PM 46.9 °F - 45.0 °F 93% 30.13 in 5.0 mi ESE 9.2 mph - 0.01 in Rain Light Rain
10:53 PM 46.9 °F - 45.0 °F 93% 30.13 in 5.0 mi ESE 9.2 mph - 0.04 in Rain Light Rain
11:34 PM 46.9 °F - 45.0 °F 93% 30.12 in 5.0 mi SE 9.2 mph - 0.05 in Rain Light Rain
11:53 PM 46.9 °F - 45.0 °F 93% 30.12 in 5.0 mi ESE 11.5 mph 18.4 mph 0.06 in Rain Light Rain